Location: Lane
(33.5226°N, 79.8788°W)
Time: 03:56:48
(UTC+00:00)

Envisat - Visible Passes

Search period start: 16 August 2022 00:00
Search period end: 26 August 2022 00:00
Orbit: 763 x 765 km, 98.2° (Epoch: 15 August)

Date Brightness Start Highest point End Pass type
(mag) Time Alt. Az. Time Alt. Az. Time Alt. Az.
16 Aug 4.9 08:56:07 10° NE 09:00:26 28° E 09:04:44 10° SSE visible
17 Aug 5.8 08:21:50 10° ENE 08:23:12 11° E 08:24:34 10° ESE visible
17 Aug 3.0 09:57:32 10° N 10:02:34 65° WNW 10:07:34 10° SSW visible
18 Aug 3.8 09:20:42 10° NNE 09:25:38 51° E 09:30:34 10° S visible
19 Aug 5.3 08:44:44 10° NE 08:48:33 21° E 08:52:21 10° SE visible
20 Aug 3.0 09:45:41 10° N 09:50:47 86° WNW 09:55:51 10° SSW visible
21 Aug 4.3 09:09:04 10° NNE 09:13:48 39° E 09:18:31 10° SSE visible
22 Aug 5.6 08:33:34 10° NE 08:36:39 16° E 08:39:43 10° SE visible
22 Aug 3.3 10:10:59 10° N 10:15:50 46° WNW 10:20:39 10° SW visible
23 Aug 3.2 09:33:53 10° NNE 09:38:58 73° ESE 09:44:01 10° S visible
24 Aug 4.8 08:57:31 10° NE 09:01:56 29° E 09:06:19 10° SSE visible
25 Aug 5.8 08:22:53 10° ENE 08:24:43 12° E 08:26:34 10° ESE visible
25 Aug 3.0 09:59:03 10° N 10:04:03 61° WNW 10:09:02 10° SSW visible
